Olivia, MN

8:31 PM CDT on April 21, 2018 (GMT -0500)
Olivia Regional

Weather History for KOVL - June, 2013

Change the Weather History Date:

Wednesday, June 19, 2013

  Actual Average (KRWF) Record (KRWF)
Temperature  
Mean Temperature 74 °F -  
Max Temperature 87 °F 80 °F 104 °F (1933)
Min Temperature 60 °F 58 °F 33 °F (1999)
Cooling Degree Days 8    
Growing Degree Days 24 (Base 50)    
Moisture  
Dew Point 56 °F    
Average Humidity 56    
Maximum Humidity 82    
Minimum Humidity 29    
Precipitation  
Precipitation 0.00 in - - ()
Sea Level Pressure  
Sea Level Pressure 29.97 in    
Wind  
Wind Speed 8 mph (SE)    
Max Wind Speed 14 mph    
Max Gust Speed 21 mph    
Visibility 10 miles    
Events      
Averages and records for this station are not official NWS values.
T = Trace of Precipitation, MM = Missing Value Source: NWS Daily Summary

Daily Weather History Graph

Daily Weather History Graph

Search for Another Location

Airport or City:

Astronomy

Jun. 19, 2013 Rise Set
Actual Time 5:33 AM CDT 9:09 PM CDT
Civil Twilight 4:56 AM CDT 9:46 PM CDT
Nautical Twilight 4:07 AM CDT 10:35 PM CDT
Astronomical Twilight 3:02 AM CDT 11:40 PM CDT
Moon 4:56 PM CDT (6/19) 2:27 AM CDT (6/19)
Length of Visible Light 16h 49m
Length of Day
15h 35m
Waxing Gibbous, 80% of the Moon is Illuminated
Jun 19
Waxing Gibbous
Jun 23
Full
Jun 29
Last Quarter
Jul 8
New
Jul 15
First Quarter

Hourly Weather History & Observations

Time (CDT) Temp. Heat Index Dew Point Humidity Pressure Visibility Wind Dir Wind Speed Gust Speed Precip Events Conditions
12:14 AM 69.8 °F - 59.0 °F 68% 30.02 in 10.0 mi ESE 6.9 mph - N/A   Clear
12:34 AM 68.0 °F - 57.2 °F 68% 30.03 in 10.0 mi ESE 6.9 mph - N/A   Clear
12:53 AM 68.0 °F - 59.0 °F 73% 30.02 in 10.0 mi ESE 6.9 mph - N/A   Clear
1:14 AM 66.2 °F - 57.2 °F 73% 30.02 in 10.0 mi ESE 6.9 mph - N/A   Clear
1:34 AM 64.4 °F - 55.4 °F 73% 30.02 in 10.0 mi ESE 5.8 mph - N/A   Clear
1:54 AM 64.4 °F - 55.4 °F 73% 30.01 in 10.0 mi ESE 6.9 mph - N/A   Scattered Clouds
2:14 AM 64.4 °F - 57.2 °F 77% 30.01 in 10.0 mi ESE 5.8 mph - N/A   Scattered Clouds
2:34 AM 64.4 °F - 57.2 °F 77% 30.01 in 10.0 mi ESE 5.8 mph - N/A   Scattered Clouds
2:54 AM 64.4 °F - 57.2 °F 77% 30.01 in 10.0 mi SE 6.9 mph - N/A   Mostly Cloudy
3:14 AM 62.6 °F - 55.4 °F 77% 30.01 in 10.0 mi ESE 4.6 mph - N/A   Mostly Cloudy
3:34 AM 62.6 °F - 55.4 °F 77% 30.00 in 10.0 mi SE 6.9 mph - N/A   Mostly Cloudy
3:54 AM 62.6 °F - 57.2 °F 82% 29.99 in 10.0 mi ESE 4.6 mph - N/A   Mostly Cloudy
4:13 AM 62.6 °F - 57.2 °F 82% 29.99 in 10.0 mi ESE 6.9 mph - N/A   Mostly Cloudy
4:34 AM 62.6 °F - 55.4 °F 77% 30.00 in 10.0 mi SE 5.8 mph - N/A   Scattered Clouds
4:54 AM 62.6 °F - 57.2 °F 82% 30.01 in 10.0 mi SE 5.8 mph - N/A   Scattered Clouds
5:13 AM 62.6 °F - 57.2 °F 82% 30.01 in 10.0 mi SE 5.8 mph - N/A   Scattered Clouds
5:34 AM 60.8 °F - 55.4 °F 82% 30.01 in 10.0 mi SE 4.6 mph - N/A   Clear
5:54 AM 60.8 °F - 55.4 °F 82% 30.01 in 10.0 mi ESE 5.8 mph - N/A   Clear
6:14 AM 62.6 °F - 57.2 °F 82% 30.02 in 10.0 mi SE 5.8 mph - N/A   Clear
6:34 AM 62.6 °F - 55.4 °F 77% 30.02 in 10.0 mi ESE 5.8 mph - N/A   Clear
6:53 AM 62.6 °F - 55.4 °F 77% 30.01 in 10.0 mi SE 5.8 mph - N/A   Clear
7:14 AM 62.6 °F - 57.2 °F 82% 30.02 in 10.0 mi SE 6.9 mph - N/A   Clear
7:34 AM 64.4 °F - 57.2 °F 77% 30.02 in 10.0 mi SE 9.2 mph - N/A   Clear
7:53 AM 68.0 °F - 59.0 °F 73% 30.01 in 10.0 mi SE 8.1 mph - N/A   Clear
8:14 AM 69.8 °F - 60.8 °F 73% 30.01 in 10.0 mi SSE 10.4 mph - N/A   Clear
8:34 AM 69.8 °F - 59.0 °F 68% 30.01 in 10.0 mi SSE 11.5 mph - N/A   Clear
8:54 AM 69.8 °F - 59.0 °F 68% 30.01 in 10.0 mi South 9.2 mph - N/A   Clear
9:14 AM 71.6 °F - 59.0 °F 64% 30.01 in 10.0 mi SSE 10.4 mph - N/A   Clear
9:34 AM 73.4 °F - 62.6 °F 69% 30.01 in 10.0 mi SE 10.4 mph - N/A   Scattered Clouds
9:54 AM 73.4 °F - 62.6 °F 69% 30.01 in 10.0 mi SSE 8.1 mph - N/A   Scattered Clouds
10:14 AM 73.4 °F - 60.8 °F 65% 30.00 in 10.0 mi SSE 9.2 mph - N/A   Clear
10:34 AM 73.4 °F - 60.8 °F 65% 30.00 in 10.0 mi SSE 9.2 mph - N/A   Clear
10:54 AM 77.0 °F - 60.8 °F 57% 29.99 in 10.0 mi SSE 10.4 mph - N/A   Clear
11:14 AM 77.0 °F - 60.8 °F 57% 29.99 in 10.0 mi South 11.5 mph 16.1 mph N/A   Clear
11:34 AM 78.8 °F - 60.8 °F 54% 29.99 in 10.0 mi SSE 11.5 mph - N/A   Clear
11:54 AM 78.8 °F - 60.8 °F 54% 29.98 in 10.0 mi South 8.1 mph - N/A   Clear
12:14 PM 78.8 °F - 59.0 °F 51% 29.98 in 10.0 mi South 10.4 mph - N/A   Clear
12:34 PM 80.6 °F 81.1 °F 59.0 °F 48% 29.97 in 10.0 mi SSE 13.8 mph - N/A   Clear
12:53 PM 82.4 °F 81.7 °F 55.4 °F 39% 29.97 in 10.0 mi South 8.1 mph - N/A   Scattered Clouds
1:14 PM 82.4 °F 81.7 °F 55.4 °F 39% 29.97 in 10.0 mi South 8.1 mph - N/A   Scattered Clouds
1:34 PM 82.4 °F 81.4 °F 53.6 °F 37% 29.96 in 10.0 mi South 10.4 mph - N/A   Clear
1:53 PM 82.4 °F - 51.8 °F 35% 29.96 in 10.0 mi South 4.6 mph 16.1 mph N/A   Mostly Cloudy
2:14 PM 84.2 °F - 51.8 °F 33% 29.95 in 10.0 mi South 8.1 mph - N/A   Overcast
2:34 PM 84.2 °F - 51.8 °F 33% 29.95 in 10.0 mi South 9.2 mph 16.1 mph N/A   Mostly Cloudy
2:54 PM 82.4 °F - 50.0 °F 32% 29.94 in 10.0 mi SSW 5.8 mph 16.1 mph N/A   Mostly Cloudy
3:14 PM 84.2 °F - 51.8 °F 33% 29.94 in 10.0 mi SSE 9.2 mph 20.7 mph N/A   Mostly Cloudy
3:33 PM 86.0 °F - 50.0 °F 29% 29.93 in 10.0 mi SSE 11.5 mph 16.1 mph N/A   Mostly Cloudy
3:54 PM 87.8 °F - 51.8 °F 29% 29.92 in 10.0 mi South 10.4 mph - N/A   Scattered Clouds
4:14 PM 86.0 °F - 50.0 °F 29% 29.92 in 10.0 mi SSE 13.8 mph - N/A   Scattered Clouds
4:34 PM 86.0 °F - 50.0 °F 29% 29.92 in 10.0 mi South 8.1 mph 16.1 mph N/A   Scattered Clouds
4:53 PM 87.8 °F - 51.8 °F 29% 29.92 in 10.0 mi SSE 12.7 mph 16.1 mph N/A   Clear
5:14 PM 87.8 °F - 51.8 °F 29% 29.91 in 10.0 mi SSE 10.4 mph 16.1 mph N/A   Clear
5:34 PM 87.8 °F - 51.8 °F 29% 29.91 in 10.0 mi SSE 12.7 mph - N/A   Scattered Clouds
5:54 PM 84.2 °F - 51.8 °F 33% 29.91 in 10.0 mi SSE 8.1 mph - N/A   Scattered Clouds
6:13 PM 84.2 °F - 51.8 °F 33% 29.90 in 10.0 mi SSE 9.2 mph - N/A   Scattered Clouds
6:34 PM 84.2 °F - 51.8 °F 33% 29.90 in 10.0 mi SSE 11.5 mph - N/A   Scattered Clouds
6:54 PM 82.4 °F - 51.8 °F 35% 29.90 in 10.0 mi SSE 11.5 mph 16.1 mph N/A   Scattered Clouds
7:13 PM 82.4 °F 81.4 °F 53.6 °F 37% 29.90 in 10.0 mi SSE 9.2 mph - N/A   Scattered Clouds
7:34 PM 82.4 °F 81.4 °F 53.6 °F 37% 29.90 in 10.0 mi SSE 10.4 mph - N/A   Clear
7:53 PM 82.4 °F 81.7 °F 55.4 °F 39% 29.90 in 10.0 mi SSE 9.2 mph - N/A   Clear
8:14 PM 80.6 °F 80.3 °F 53.6 °F 39% 29.90 in 10.0 mi SSE 8.1 mph - N/A   Clear
8:34 PM 80.6 °F 80.5 °F 55.4 °F 42% 29.90 in 10.0 mi SSE 6.9 mph - N/A   Clear
8:54 PM 78.8 °F - 57.2 °F 47% 29.90 in 10.0 mi SE 6.9 mph - N/A   Clear
9:14 PM 77.0 °F - 55.4 °F 47% 29.90 in 10.0 mi SE 4.6 mph - N/A   Clear
9:34 PM 77.0 °F - 57.2 °F 50% 29.91 in 10.0 mi SE 5.8 mph - N/A   Clear
9:54 PM 77.0 °F - 57.2 °F 50% 29.92 in 10.0 mi SE 5.8 mph - N/A   Clear
10:14 PM 77.0 °F - 59.0 °F 54% 29.92 in 10.0 mi SE 5.8 mph - N/A   Clear
10:33 PM 77.0 °F - 57.2 °F 50% 29.92 in 10.0 mi SE 8.1 mph - N/A   Scattered Clouds
10:54 PM 77.0 °F - 57.2 °F 50% 29.92 in 10.0 mi SE 9.2 mph - N/A   Mostly Cloudy
11:14 PM 73.4 °F - 57.2 °F 57% 29.92 in 10.0 mi SE 9.2 mph - N/A   Scattered Clouds
11:33 PM 73.4 °F - 59.0 °F 61% 29.92 in 10.0 mi SE 8.1 mph - N/A   Clear
11:54 PM 73.4 °F - 60.8 °F 65% 29.92 in 10.0 mi SE 8.1 mph - N/A   Clear